STARLINK-2536, 48310

Orbit data source: Space-Track

STARLINK-2536, 48310 is a payload satellite owned by SpaceX/Seattle (US) in LEO that was launched on Thu, 29 Apr 2021 UTC via an FALCON 9 launch vehicle from the Air Force Eastern Test Range (AFETR). Payload-class satellites include a variety of spacecraft equipped with specific instruments for various scientific and technological missions. These include communications satellites like Starlink; space stations such as the ISS; scientific satellites like the Hubble; Earth observation satellites from companies like Planet Labs, Umbra, and HawkEye 360; GPS; miniature CubeSats for education and research; and military/defense satellites.

Loading next visibility...
Identifier
48310, 2021-036AL
Orbit
LEO
Country
Flag of USUS
Related business
Manufacturer
SpaceX/Seattle
Mission
Operational Commercial Communications
Bus & Motor
STARLINK, Unknown motor
Mass
260 kg wet, ~248 kg dry
Launch date (UTC)
2021-04-29 (5 years ago)
Launch vehicle
FALCON 9
Launch site
Air Force Eastern Test Range (AFETR)
Object type
Payload
Rocket body
Debris
Shape & HBR
Box + 1 Pan, 10.1 m
Radar Cross Section
13.562 m², Large (>1 m²)

Expand to show TLE details & history
Last TLE update: 13 hours ago

TLE from 13 hours ago
0 STARLINK-2536
1 48310U 21036AL  25304.25060746 -.00002646  00000-0 -15869-3 0  9994
2 48310  53.0567 312.6896 0001683 107.0305 253.0869 15.06417664248662
Epoch: 2025-10-31T06:00Z
TLE epoch observation values (Epoch: 2025-10-31T06:00:52.484Z)
Latitude
0.00002°
Longitude
-177.3268°
Altitude
548.376 km
Speed
7.589 km/s
True Right ascension
20h 50m 45s
True Declination
0° 00' 00"
Sunlit
Object was in daylight at epoch
Visualization orbit readout
Latitude
Unknown
Longitude
Unknown
Altitude
Unknown
Speed
Unknown
Apparent Right ascension
Unknown
Apparent Declination
Unknown
Sunlit
N/A
Visualization observer readout
Local Sidereal Time
14:21:08
Azimuth
Unknown
Elevation
Unknown
Doppler factor
Unknown
Orbital elements
Apogee altitude
548.593 km
Perigee altitude
546.262 km
Semi-major axis
6,925.565 km
Eccentricity
0.00017
Inclination
53.0567°
RAAN
312.6896°
Arg. of periapsis
107.0305°
True anomaly
253.06845°
Mean anomaly
253.0869°
Eccentric anomaly
253.07767°
Mean motion
3.76583 °/min
Orbital period
95.6 mins
BSTAR
-0.00015869
Loading maneuver chart data...
Computing Atmospheric mass density...
Loading historical data...
Loading historical data...
Loading historical data...
Loading historical data...
Loading historical data...
Loading historical data...
Loading historical data...

Documentation

Showing up to 5 results
|